TITAN 3C TRANSTAGE DEB, 20760

Orbit data source: Space-Track

TITAN 3C TRANSTAGE DEB, 20760 is space debris in HEO originally from a launch on Tue, 21 Dec 1965 UTC launched from the Air Force Eastern Test Range (AFETR). Debris objects in space refer to the collection of defunct objects orbiting the Earth. Examples of debris include non-operational satellites, rocket bodies, and fragments generated from explosions, collisions, or faulty payload assembly.

Loading next visibility...
Identifier
20760, 1965-108AE
Orbit
HEO
Country
Flag of USUS
Related business
Manufacturer
Unknown
Mission
Spacecraft
Bus & Motor
Unknown
Mass
Unknown
Launch date (UTC)
1965-12-21 (60 years ago)
Launch vehicle
Unknown
Launch site
Air Force Eastern Test Range (AFETR)
Object type
Payload
Rocket body
Debris
Shape & HBR
Unknown
Radar Cross Section
Medium (>0.1 m² and <1 m²)

Expand to show TLE details & history
Last TLE update: 4 days ago

TLE from 4 days ago
0 TITAN 3C TRANSTAGE DEB
1 20760U 65108AE  25238.90942881  .00002124  00000-0  17980-1 0  9991
2 20760  27.0608  93.7719 6697288  85.6833   0.7267  2.84237273142978
Epoch: 2025-08-26T21:49Z
TLE epoch observation values (Epoch: 2025-08-26T21:49:34.649Z)
Latitude
27.19822°
Longitude
-118.02619°
Altitude
570.811 km
Speed
9.79 km/s
True Right ascension
12h 19m 03s
True Declination
27° 03' 18"
Sunlit
Object was in daylight at epoch
Visualization orbit readout
Latitude
Unknown
Longitude
Unknown
Altitude
Unknown
Speed
Unknown
Apparent Right ascension
Unknown
Apparent Declination
Unknown
Sunlit
N/A
Visualization observer readout
Local Sidereal Time
15:57:54
Azimuth
Unknown
Elevation
Unknown
Doppler factor
Unknown
Orbital elements
Apogee altitude
28,777.91 km
Perigee altitude
575.705 km
Semi-major axis
21,054.944 km
Eccentricity
0.66973
Inclination
27.0608°
RAAN
93.7719°
Arg. of periapsis
85.6833°
True anomaly
4.94242°
Mean anomaly
0.7267°
Eccentric anomaly
2.19922°
Mean motion
0.71041 °/min
Orbital period
506.75 mins
BSTAR
0.01798
Loading maneuver chart data...
Computing Atmospheric mass density...

Documentation

Showing up to 5 results
|